Terug naar catalogus

GALILEO 30

10E

ActiefNavigatieMEO
NORAD 59600·PAYLOAD·🇪🇺 EU

Gelanceerd Apr 28, 2024 vanaf Cape Canaveral Space Force Station

Loading…

Volgende Passages (komende 24 uur)

TLE

VersSource: CelesTrak SupGP

Epoch: Sep 13, 2026, 23:59 UTC

1 59600C 24079C   26256.99979167  .00000000  00000+0  00000+0 0  2564
2 59600  55.1722  98.5945 0004181  95.0682 164.3879  1.70474437    14

Volg GALILEO 30 in realtime met AllMySat

Download on the App Store